KLM735 EHAM-TNCC

Flight info

Callsign KLM735
Flight time N/A
Altitude 34000
Route IDRID L980 LAM L179 UGBET Q60 OKSAW DCT FELCA DCT FADZU DCT BANBA DCT ADARA/M083F340 DCT 51N020W 4930N03000W 45N040W 37N050W/M083F360 DCT AYTTE DCT TARMO DCT OPAUL/N0486F360 DCT SCAPA SCAPA1B
Aircraft B77W/H-SDE1E2E3FGHIJ2J3J4J5M1RWXY/LB1D1

Departure

Time N/A
Airport Amsterdam Airport Schiphol (EHAM)

Arrival

Time 2026-05-09 06:51
Airport Hato International Airport (TNCC)
Time Latitude Longitude Altitude Speed Heading
2026-05-09 06:28 13.68494 -68.59963 25189 ft 421 kts 204°
2026-05-09 06:28 13.65864 -68.61294 24743 ft 420 kts 204°
2026-05-09 06:28 13.63245 -68.62620 24294 ft 420 kts 204°
2026-05-09 06:29 13.60622 -68.63947 23851 ft 419 kts 204°
2026-05-09 06:29 13.58009 -68.65268 23374 ft 419 kts 203°
2026-05-09 06:29 13.55433 -68.66570 22898 ft 417 kts 203°
2026-05-09 06:29 13.52804 -68.67899 22439 ft 415 kts 203°
2026-05-09 06:30 13.50219 -68.69206 21991 ft 412 kts 203°
2026-05-09 06:30 13.47689 -68.70484 21555 ft 410 kts 203°
2026-05-09 06:30 13.45147 -68.71768 21119 ft 408 kts 203°
2026-05-09 06:30 13.42609 -68.73050 20677 ft 405 kts 203°
2026-05-09 06:31 13.40084 -68.74325 20237 ft 403 kts 203°
2026-05-09 06:31 13.37575 -68.75591 19795 ft 401 kts 203°
2026-05-09 06:31 13.35076 -68.76852 19359 ft 399 kts 203°
2026-05-09 06:31 13.32588 -68.78107 18919 ft 398 kts 204°
2026-05-09 06:32 13.30111 -68.79357 18479 ft 396 kts 204°
2026-05-09 06:32 13.27646 -68.80600 18001 ft 394 kts 204°
2026-05-09 06:32 13.25188 -68.81839 17534 ft 392 kts 204°
2026-05-09 06:33 13.20356 -68.84275 16657 ft 386 kts 204°
2026-05-09 06:33 13.17957 -68.85484 16231 ft 383 kts 204°
2026-05-09 06:33 13.15582 -68.86681 15785 ft 375 kts 204°
2026-05-09 06:34 13.11076 -68.88953 14973 ft 348 kts 204°
2026-05-09 06:34 13.08936 -68.90032 14589 ft 337 kts 204°
2026-05-09 06:34 13.06858 -68.91077 14219 ft 328 kts 204°
2026-05-09 06:34 13.04838 -68.92093 13867 ft 319 kts 204°
2026-05-09 06:35 13.02868 -68.93084 13472 ft 312 kts 204°
2026-05-09 06:35 13.00924 -68.94062 13112 ft 312 kts 204°
2026-05-09 06:35 12.98940 -68.95057 12772 ft 326 kts 204°
2026-05-09 06:35 12.96866 -68.96098 12405 ft 335 kts 204°
2026-05-09 06:36 12.94766 -68.97153 12008 ft 337 kts 204°
2026-05-09 06:36 12.92662 -68.98212 11614 ft 337 kts 204°
2026-05-09 06:36 12.90562 -68.99269 11231 ft 336 kts 204°
2026-05-09 06:36 12.88532 -69.00290 10855 ft 335 kts 204°
2026-05-09 06:37 12.86442 -69.01341 10475 ft 335 kts 203°
2026-05-09 06:37 12.84363 -69.02385 10239 ft 329 kts 204°
2026-05-09 06:37 12.82336 -69.03404 10092 ft 320 kts 204°
2026-05-09 06:37 12.80385 -69.04384 9931 ft 313 kts 204°
2026-05-09 06:38 12.78451 -69.05355 9685 ft 308 kts 204°
2026-05-09 06:38 12.76540 -69.06313 9422 ft 304 kts 204°
2026-05-09 06:38 12.74659 -69.07256 9189 ft 298 kts 203°
2026-05-09 06:38 12.72814 -69.08182 8946 ft 294 kts 203°
2026-05-09 06:39 12.70998 -69.09092 8714 ft 290 kts 204°
2026-05-09 06:39 12.69198 -69.09994 8480 ft 286 kts 204°
2026-05-09 06:39 12.67415 -69.10887 8274 ft 284 kts 204°
2026-05-09 06:39 12.65647 -69.11773 8048 ft 282 kts 204°
2026-05-09 06:40 12.63895 -69.12652 7819 ft 280 kts 203°
2026-05-09 06:40 12.62150 -69.13526 7613 ft 278 kts 202°
2026-05-09 06:40 12.60415 -69.14395 7384 ft 278 kts 203°
2026-05-09 06:40 12.58675 -69.15266 7171 ft 279 kts 203°
2026-05-09 06:41 12.56926 -69.16141 6961 ft 281 kts 202°
2026-05-09 06:41 12.55132 -69.16877 6711 ft 274 kts 186°
2026-05-09 06:41 12.53270 -69.16888 6523 ft 265 kts 172°
2026-05-09 06:41 12.51418 -69.16761 6312 ft 268 kts 174°
2026-05-09 06:42 12.49549 -69.16643 6083 ft 271 kts 173°
2026-05-09 06:42 12.47665 -69.16528 5858 ft 270 kts 173°
2026-05-09 06:42 12.45800 -69.16417 5635 ft 266 kts 173°
2026-05-09 06:42 12.43965 -69.16309 5423 ft 262 kts 172°
2026-05-09 06:43 12.42165 -69.16203 5198 ft 257 kts 174°
2026-05-09 06:43 12.40388 -69.16100 5007 ft 254 kts 173°
2026-05-09 06:43 12.38637 -69.15999 4799 ft 249 kts 173°
2026-05-09 06:43 12.36927 -69.15901 4603 ft 243 kts 173°
2026-05-09 06:44 12.35263 -69.15807 4405 ft 237 kts 173°
2026-05-09 06:44 12.33618 -69.15711 4210 ft 237 kts 172°
2026-05-09 06:44 12.31976 -69.15617 4059 ft 235 kts 171°
2026-05-09 06:44 12.30360 -69.15524 3902 ft 229 kts 171°
2026-05-09 06:45 12.28772 -69.15433 3705 ft 230 kts 172°
2026-05-09 06:45 12.27173 -69.15340 3529 ft 230 kts 172°
2026-05-09 06:45 12.25590 -69.15250 3332 ft 225 kts 172°
2026-05-09 06:45 12.24113 -69.14989 3110 ft 206 kts 148°
2026-05-09 06:46 12.23165 -69.14037 2964 ft 184 kts 113°
2026-05-09 06:46 12.22709 -69.12869 2833 ft 174 kts 107°
2026-05-09 06:46 12.22317 -69.11708 2721 ft 173 kts 107°
2026-05-09 06:46 12.21977 -69.10566 2567 ft 165 kts 102°
2026-05-09 06:47 12.21721 -69.09478 2407 ft 153 kts 100°
2026-05-09 06:47 12.21497 -69.08439 2240 ft 149 kts 99°
2026-05-09 06:47 12.21280 -69.07404 2053 ft 149 kts 99°
2026-05-09 06:47 12.21066 -69.06379 1867 ft 149 kts 98°
2026-05-09 06:48 12.20850 -69.05351 1657 ft 145 kts 98°
2026-05-09 06:48 12.20648 -69.04385 1464 ft 134 kts 99°
2026-05-09 06:48 12.20455 -69.03470 1321 ft 133 kts 99°
2026-05-09 06:48 12.20259 -69.02542 1119 ft 133 kts 99°
2026-05-09 06:49 12.20066 -69.01646 950 ft 128 kts 97°
2026-05-09 06:49 12.19893 -69.00747 825 ft 130 kts 98°
2026-05-09 06:49 12.19696 -68.99811 743 ft 137 kts 101°
2026-05-09 06:49 12.19491 -68.98849 519 ft 141 kts 99°
2026-05-09 06:50 12.19284 -68.97869 291 ft 140 kts 99°
2026-05-09 06:50 12.19083 -68.96895 113 ft 141 kts 100°
2026-05-09 06:50 12.18881 -68.95958 45 ft 122 kts 97°
2026-05-09 06:50 12.18738 -68.95249 47 ft 77 kts 102°
2026-05-09 06:51 12.18665 -68.94903 47 ft 23 kts 102°
2026-05-09 06:51 12.18631 -68.94752 47 ft 25 kts 103°
2026-05-09 06:51 12.18593 -68.94567 47 ft 20 kts 103°
2026-05-09 06:51 12.18552 -68.94479 48 ft 13 kts 150°
2026-05-09 06:52 12.18449 -68.94484 47 ft 11 kts 203°
2026-05-09 06:52 12.18430 -68.94499 50 ft 5 kts 223°
2026-05-09 06:52 12.18422 -68.94598 50 ft 23 kts 279°
2026-05-09 06:52 12.18465 -68.94809 49 ft 35 kts 282°
2026-05-09 06:53 12.18522 -68.95072 49 ft 38 kts 282°
2026-05-09 06:53 12.18573 -68.95322 48 ft 18 kts 282°
2026-05-09 06:53 12.18589 -68.95399 48 ft 15 kts 282°
2026-05-09 06:53 12.18600 -68.95449 48 ft 6 kts 282°
2026-05-09 06:54 12.18616 -68.95524 47 ft 16 kts 282°
2026-05-09 06:54 12.18645 -68.95667 47 ft 22 kts 282°
2026-05-09 06:54 12.18661 -68.95741 47 ft 3 kts 283°
2026-05-09 06:54 12.18666 -68.95768 47 ft 4 kts 272°
2026-05-09 06:55 12.18653 -68.95783 47 ft 3 kts 204°
2026-05-09 06:55 12.18597 -68.95797 48 ft 10 kts 192°
2026-05-09 06:55 12.18590 -68.95798 48 ft 1 kts 193°
2026-05-09 06:55 12.18570 -68.95803 48 ft 5 kts 192°
2026-05-09 06:56 12.18553 -68.95807 48 ft 1 kts 192°
2026-05-09 06:56 12.18552 -68.95807 48 ft 0 kts 192°
2026-05-09 06:56 12.18551 -68.95807 48 ft 1 kts 192°